Home > Weather > Atlanta > Past weeks

Flag for USA Weather for the Past 2 Weeks in Atlanta, Georgia, USA

Now
47 °F

Clear.


Feels Like: 45 °F
Forecast: 48 / 71 °F
Wind: 5 mph from Northwest

Location: Fulton County Airport-Brown Field

Current Time: May 6, 2016 at 4:15:07 AM

Latest Report: May 6, 2016 at 2:53 AM


Visibility: 10 mi

Pressure: 29.86 "Hg

Humidity: 74%

Dew Point: 39 °F

Location of AtlantaLocation

Historic Weather in Atlanta — Graph

°F

Atlanta Temperature Yesterday

Maximum temperature yesterday: 65 °F (at 2:53 PM)
Minimum temperature yesterday: 49 °F (at 11:53 PM)
Average temperature yesterday: 56 °F

High & Low Weather Summary for the Past Weeks

 TemperatureHumidityPressure
High86 °F (Apr 29, 2:53 PM)97% (May 1, 6:56 AM)30.09 "Hg (May 1, 6:56 AM)
Low47 °F (May 6, 2:53 AM)25% (Apr 29, 4:53 PM)29.68 "Hg (May 4, 7:53 PM)
Average68 °F69%29.92 "Hg
* Reported Apr 21 3:53 PM — May 6 2:53 AM, Atlanta, Weather by CustomWeather, © 2016

Note: Actual official high and low records may vary slightly from our data, if they occured in-between our weather recording intervals... More about our weather records

Advertising

Atlanta Weather History for the Previous 24 Hours

Scroll right to see more
 ConditionsComfort  
Time TempWeatherWind HumidityBarometerVisibility
2:53 AM
Fri, May 6
47 °FClear.5 mph74%29.86 "Hg10 mi
1:53 AM48 °FClear.5 mph68%29.88 "Hg10 mi
12:53 AM49 °FClear.3 mph66%29.88 "Hg10 mi
11:53 PM
Thu, May 5
49 °FClear.5 mph66%29.88 "Hg10 mi
10:53 PM51 °FClear.7 mph59%29.88 "Hg10 mi
9:53 PM52 °FClear.9 mph53%29.87 "Hg10 mi
8:53 PM53 °FSunny.8 mph56%29.85 "Hg10 mi
7:53 PM56 °FSunny.15 mph49%29.82 "Hg10 mi
6:53 PM59 °FSunny.17 mph49%29.79 "Hg10 mi
5:53 PM58 °FPartly sunny.17 mph60%29.78 "Hg10 mi
4:53 PM64 °FPartly sunny.23 mph37%29.73 "Hg10 mi
3:53 PM64 °FBroken clouds.13 mph38%29.74 "Hg10 mi
2:53 PM65 °FPartly sunny.16 mph39%29.75 "Hg10 mi
1:53 PM63 °FPartly sunny.10 mph41%29.76 "Hg10 mi
12:53 PM60 °FOvercast.16 mph44%29.79 "Hg10 mi
11:53 AM61 °FScattered clouds.14 mph46%29.79 "Hg10 mi
10:53 AM58 °FSunny.14 mph51%29.80 "Hg10 mi
9:53 AM55 °FSunny.14 mph59%29.80 "Hg10 mi
8:53 AM52 °FSunny.15 mph72%29.78 "Hg10 mi
7:53 AM50 °FSunny.9 mph80%29.76 "Hg10 mi
6:53 AM50 °FClear.5 mph83%29.75 "Hg10 mi
5:53 AM50 °FClear.6 mph86%29.74 "Hg10 mi
4:53 AM52 °FClear.5 mphN/A29.72 "Hg10 mi
Weather by CustomWeather, © 2016

See weather overviewHow to use our weather pages